Weather History for Key West, FL

Change the Weather History Date:

Tuesday, April 2, 2013

  Actual Average Record
Temperature  
Mean Temperature 77 °F 75 °F  
Max Temperature 83 °F 80 °F 88 °F (1883)
Min Temperature 70 °F 70 °F 48 °F (1987)
Degree Days  
Heating Degree Days 0 0  
Month to date heating degree days 0 0  
Since 1 July heating degree days 28 73  
Cooling Degree Days 12 10  
Month to date cooling degree days 24 20  
Year to date cooling degree days 720 630  
Growing Degree Days 26 (Base 50)    
Moisture  
Dew Point 68 °F    
Average Humidity 74    
Maximum Humidity 93    
Minimum Humidity 55    
Precipitation  
Precipitation 0.00 in 0.07 in 2.03 in (1939)
Month to date precipitation 0.00 0.14  
Year to date precipitation 3.74 5.72  
Snow  
Snow 0.00 in - - ()
Month to date snowfall 0.0  
Since 1 July snowfall 0.0  
Snow Depth 0.00 in    
Sea Level Pressure  
Sea Level Pressure 30.06 in    
Wind  
Wind Speed 4 mph (NNE)    
Max Wind Speed 12 mph    
Max Gust Speed 16 mph    
Visibility 10 miles    
Events      
T = Trace of Precipitation, MM = Missing Value Source: NWS Daily Summary

Daily Weather History Graph

Daily Weather History Graph

Search for Another Location

Airport:

Trip Planner

Search our weather history database for the weather conditions in past years. The results will help you decide how hot, cold, wet, or windy it might be!

Date:

Astronomy

Apr. 02, 2013 Rise Set
Actual Time 7:17 AM EDT 7:43 PM EDT
Civil Twilight 6:54 AM EDT 8:06 PM EDT
Nautical Twilight 6:27 AM EDT 8:33 PM EDT
Astronomical Twilight 6:00 AM EDT 9:00 PM EDT
Moon 1:21 AM EDT 12:31 PM EDT
Length of Visible Light 13h 12m
Length of Day
12h 26m
Waning Gibbous, 56% of the Moon is Illuminated
Apr 2
Waning Gibbous
Apr 3
Last Quarter
Apr 10
New
Apr 18
First Quarter
Apr 25
Full

Hourly Weather History & Observations

Time (EDT) Temp. Heat Index Dew Point Humidity Pressure Visibility Wind Dir Wind Speed Gust Speed Precip Events Conditions
12:53 AM 73.9 °F - 71.1 °F 91% 30.06 in 10.0 mi NNE 3.5 mph - N/A   Clear
1:53 AM 73.9 °F - 70.0 °F 87% 30.06 in 10.0 mi Calm Calm - N/A   Clear
2:53 AM 73.0 °F - 70.0 °F 90% 30.05 in 9.0 mi Calm Calm - N/A   Clear
3:53 AM 73.0 °F - 70.0 °F 90% 30.03 in 9.0 mi NNE 4.6 mph - N/A   Clear
4:53 AM 73.0 °F - 70.0 °F 90% 30.02 in 9.0 mi Calm Calm - N/A   Clear
5:53 AM 72.0 °F - 69.1 °F 91% 30.03 in 9.0 mi NNE 3.5 mph - N/A   Clear
6:53 AM 71.1 °F - 68.0 °F 90% 30.05 in 10.0 mi Calm Calm - N/A   Clear
7:53 AM 72.0 °F - 69.1 °F 91% 30.07 in 9.0 mi North 4.6 mph - N/A   Clear
8:53 AM 75.9 °F - 68.0 °F 76% 30.09 in 10.0 mi NNE 6.9 mph - N/A   Clear
9:53 AM 78.1 °F - 68.0 °F 71% 30.10 in 10.0 mi NE 5.8 mph - N/A   Clear
10:53 AM 80.1 °F 82.3 °F 66.9 °F 64% 30.11 in 10.0 mi NNE 5.8 mph - N/A   Clear
11:53 AM 81.0 °F 83.3 °F 66.9 °F 62% 30.11 in 10.0 mi NNE 5.8 mph - N/A   Clear
12:53 PM 82.0 °F 84.5 °F 66.9 °F 60% 30.10 in 10.0 mi NE 4.6 mph - N/A   Clear
1:53 PM 82.0 °F 84.5 °F 66.9 °F 60% 30.08 in 10.0 mi North 8.1 mph - N/A   Clear
2:53 PM 82.9 °F 85.0 °F 66.0 °F 56% 30.06 in 10.0 mi East 5.8 mph - N/A   Clear
3:53 PM 81.0 °F 83.8 °F 68.0 °F 65% 30.04 in 10.0 mi NE 8.1 mph - N/A   Partly Cloudy
4:53 PM 82.0 °F 83.4 °F 64.0 °F 54% 30.04 in 10.0 mi NE 4.6 mph - N/A   Clear
5:53 PM 81.0 °F 82.7 °F 64.9 °F 58% 30.03 in 10.0 mi North 4.6 mph - N/A   Clear
6:53 PM 79.0 °F - 64.0 °F 60% 30.04 in 10.0 mi North 5.8 mph - N/A   Clear
7:53 PM 75.9 °F - 66.0 °F 71% 30.03 in 10.0 mi North 4.6 mph - N/A   Clear
8:53 PM 75.0 °F - 66.9 °F 76% 30.05 in 10.0 mi North 3.5 mph - N/A   Clear
9:53 PM 73.9 °F - 68.0 °F 82% 30.06 in 10.0 mi North 3.5 mph - N/A   Clear
10:53 PM 73.9 °F - 68.0 °F 82% 30.08 in 10.0 mi Calm Calm - N/A   Clear
11:53 PM 73.9 °F - 68.0 °F 82% 30.08 in 10.0 mi NE 3.5 mph - N/A   Clear